This is the latest recevied weather packets stored in our database for station/object N8QF. If no packets are shown the sender has not sent any weather packets the latest 10 day(s).
| Time | Temp. | Humidity | Pressure | Rain* | Wind** | Luminosity | Snow |
|---|---|---|---|---|---|---|---|
| 1777836742 | 16.11° C | 34% | 1015.1 hPa | 0 mm | - | - | - |
| 1777836441 | 16.11° C | 37% | 1015.2 hPa | 0 mm | - | - | - |
| 1777836141 | 16.67° C | 38% | 1015.2 hPa | 0 mm | - | - | - |
| 1777835841 | 16.67° C | 35% | 1015.3 hPa | 0 mm | - | - | - |
| 1777835541 | 16.11° C | 36% | 1015.3 hPa | 0 mm | - | - | - |
| 1777835241 | 15.56° C | 38% | 1015.4 hPa | 0 mm | - | - | - |
| 1777834940 | 15.56° C | 38% | 1015.4 hPa | 0 mm | - | - | - |
| 1777834639 | 15.56° C | 37% | 1015.5 hPa | 0 mm | - | - | - |
| 1777834339 | 15.56° C | 38% | 1015.6 hPa | 0 mm | - | - | - |
| 1777833737 | 15.56° C | 35% | 1015.7 hPa | 0 mm | - | - | - |
| 1777833437 | 16.11° C | 39% | 1015.7 hPa | 0 mm | - | - | - |
| 1777833136 | 15.56° C | 39% | 1015.8 hPa | 0 mm | - | - | - |
| 1777832836 | 16.11° C | 36% | 1015.9 hPa | 0 mm | - | - | - |
| 1777832536 | 16.11° C | 36% | 1015.9 hPa | 0 mm | - | - | - |
| 1777831934 | 15.56° C | 37% | 1016.1 hPa | 0 mm | - | - | - |
| 1777831634 | 15.56° C | 35% | 1016.2 hPa | 0 mm | - | - | - |
| 1777831334 | 15.56° C | 38% | 1016.2 hPa | 0 mm | - | - | - |
| 1777831031 | 15.56° C | 36% | 1016.3 hPa | 0 mm | - | - | - |
| 1777830731 | 15.56° C | 37% | 1016.3 hPa | 0 mm | - | - | - |
| 1777830428 | 15° C | 42% | 1016.4 hPa | 0 mm | - | - | - |
| 1777830128 | 15° C | 42% | 1016.5 hPa | 0 mm | - | - | - |
| 1777829828 | 15° C | 39% | 1016.5 hPa | 0 mm | - | - | - |
| 1777829528 | 15° C | 39% | 1016.6 hPa | 0 mm | - | - | - |
| 1777829227 | 15.56° C | 38% | 1016.9 hPa | 0 mm | - | - | - |
| 1777828927 | 14.44° C | 38% | 1016.9 hPa | 0 mm | - | - | - |
* Rain since midnight (hover to see other rain measurements)
** Current wind speed in m/s (hover to see current wind gust speed)